STARLINK-4739, 53792

Orbit data source: Space-Track

STARLINK-4739, 53792 is a payload satellite owned by SpaceX/Seattle (US) in LEO that was launched on Sun, 11 Sep 2022 UTC via an FALCON 9 launch vehicle from the Air Force Eastern Test Range (AFETR). Payload-class satellites include a variety of spacecraft equipped with specific instruments for various scientific and technological missions. These include communications satellites like Starlink; space stations such as the ISS; scientific satellites like the Hubble; Earth observation satellites from companies like Planet Labs, Umbra, and HawkEye 360; GPS; miniature CubeSats for education and research; and military/defense satellites.

Loading next visibility...
Identifier
53792, 2022-111V
Orbit
LEO
Country
Flag of USUS
Related business
Manufacturer
SpaceX/Seattle
Mission
Operational Commercial Communications
Bus & Motor
STARLINK, Unknown motor
Mass
305 kg wet, ~290 kg dry
Launch date (UTC)
2022-09-11 (3 years ago)
Launch vehicle
FALCON 9
Launch site
Air Force Eastern Test Range (AFETR)
Object type
Payload
Rocket body
Debris
Shape & HBR
Box + 1 Pan, 10.1 m
Radar Cross Section
13.562 m², Large (>1 m²)

Expand to show TLE details & history
Last TLE update: 14 hours ago

TLE from 14 hours ago
0 STARLINK-4739
1 53792U 22111V   25286.52150119 -.00000135  00000-0  95911-5 0  9990
2 53792  53.2179 215.1312 0001501  82.2096 277.9066 15.08847485171460
Epoch: 2025-10-13T12:30Z
TLE epoch observation values (Epoch: 2025-10-13T12:30:57.702Z)
Latitude
-0.00008°
Longitude
5.06763°
Altitude
540.475 km
Speed
7.593 km/s
True Right ascension
14h 20m 31s
True Declination
0° 00' 00"
Sunlit
Object was in daylight at epoch
Visualization orbit readout
Latitude
Unknown
Longitude
Unknown
Altitude
Unknown
Speed
Unknown
Apparent Right ascension
Unknown
Apparent Declination
Unknown
Sunlit
N/A
Visualization observer readout
Local Sidereal Time
21:21:02
Azimuth
Unknown
Elevation
Unknown
Doppler factor
Unknown
Orbital elements
Apogee altitude
541.004 km
Perigee altitude
538.927 km
Semi-major axis
6,918.102 km
Eccentricity
0.00015
Inclination
53.2179°
RAAN
215.1312°
Arg. of periapsis
82.2096°
True anomaly
277.88956°
Mean anomaly
277.9066°
Eccentric anomaly
277.89808°
Mean motion
3.77192 °/min
Orbital period
95.44 mins
BSTAR
0.0000095911
Loading maneuver chart data...
Computing Atmospheric mass density...
Loading historical data...
Loading historical data...
Loading historical data...
Loading historical data...
Loading historical data...
Loading historical data...
Loading historical data...

Documentation

Showing up to 5 results
|